Temp
18 18 17 17 17 16 16 16 16 16 16 16 16 16 16 16 16 16 15 15 15 15 15 15 15 15 15 14 14 14 14 14 14 14 14 14 14 13 13 13 13 13 13 13 12 12 12 12 12 12 12 12 12 12 12 12 12 11 11 11 11 11 11 12 12 11 11 10 10
18 18 17 17 17 16 16 16 16 16 16 16 16 16 16 16 16 16 15 15 15 15 15 15 15 15 15 14 14 14 14 14 14 13 13 13 13 13 13 13 13 12 12 12 12 12 12 12 12 12 12 12 12 12 11 11 11 11 11 11 11 11 11 11 11 11 10 10 9
18 18 17 17 16 16 16 16 16 15 15 16 16 16 15 15 16 16 15 15 15 15 15 15 15 15 14 14 14 14 14 14 14 13 13 13 13 13 13 12 12 12 12 12 12 12 12 11 11 11 11 11 11 11 11 11 11 11 11 11 10 10 11 11 11 11 10 9 9
18 18 17 17 16 16 16 16 16 15 15 15 15 15 15 15 15 15 15 15 15 15 15 15 15 14 14 14 14 14 14 14 13 13 13 13 13 13 12 12 12 12 12 12 12 12 11 11 11 11 11 11 11 10 10 10 10 10 10 10 10 10 11 11 11 10 10 9 9
18 18 17 17 17 16 16 16 16 15 15 15 15 15 15 15 15 16 15 15 15 15 15 15 15 14 14 14 14 14 14 13 13 13 13 13 12 12 12 12 12 12 12 12 12 11 11 11 11 11 11 11 11 11 10 11 11 10 10 10 10 10 10 10 10 10 10 9 9
18 18 17 17 17 16 16 16 16 16 16 16 15 15 15 15 15 15 15 15 15 15 15 15 14 14 14 14 14 14 13 13 13 13 13 13 12 12 12 12 12 12 12 12 11 11 11 11 11 11 11 10 10 10 10 11 11 10 10 10 10 10 10 10 10 10 9 9 8
18 17 17 17 17 16 16 16 16 16 16 16 16 16 16 15 15 15 15 15 15 15 14 14 14 14 14 14 14 13 13 13 13 13 13 12 12 12 12 12 11 11 11 11 11 11 11 10 10 10 10 10 10 10 10 10 10 10 10 10 10 10 10 10 10 9 9 9 8
17 17 17 17 17 16 16 16 16 16 16 16 16 16 16 16 15 15 15 15 15 14 14 14 14 14 14 14 13 13 13 13 13 13 13 12 12 12 12 12 11 11 11 11 11 11 10 10 10 10 10 10 10 10 10 10 10 9 9 9 9 9 9 9 9 9 9 8 8
17 17 17 17 16 16 16 16 16 16 16 16 16 16 16 15 15 15 15 15 14 14 14 14 14 14 14 14 13 13 13 13 13 13 12 12 12 12 12 12 11 11 11 11 11 10 10 10 10 10 10 10 9 9 9 9 9 9 9 9 9 9 9 9 9 8 8 8 7
17 17 17 16 16 16 16 16 16 16 16 16 16 16 16 15 15 15 15 15 14 14 14 14 14 14 14 13 13 13 13 13 13 12 12 12 12 12 12 11 11 11 11 11 11 10 10 10 10 10 9 9 9 9 9 9 9 8 8 8 8 8 8 8 8 8 7 7 6
17 16 16 16 16 16 16 15 15 15 16 16 16 15 15 15 15 15 15 14 14 14 14 14 14 14 13 13 13 13 13 13 13 12 12 12 12 12 11 11 11 11 11 11 11 10 10 10 10 9 9 9 9 9 9 9 9 8 8 8 8 8 8 8 7 7 6 6 5
16 16 16 16 16 16 15 15 15 15 15 15 16 15 15 15 15 14 14 14 14 14 14 14 14 14 13 13 13 13 13 13 12 12 12 12 12 12 12 11 11 11 11 11 11 10 10 10 10 9 9 9 9 9 9 9 8 8 8 8 7 7 7 7 7 6 6 6 5
16 16 16 16 15 15 15 15 15 15 15 15 15 15 14 14 14 14 14 14 14 14 14 13 13 13 13 13 13 13 13 12 12 12 12 12 12 12 12 12 11 11 11 11 11 10 10 10 10 10 9 9 9 9 9 8 8 8 7 7 7 7 7 7 6 6 6 5 5
16 16 15 15 15 15 15 15 15 15 15 15 15 14 14 14 14 14 14 14 14 13 13 13 13 13 13 13 13 12 12 12 12 12 12 12 12 12 12 11 11 11 11 11 11 10 10 10 10 10 10 9 9 9 9 8 8 8 7 7 7 7 6 6 6 6 6 5 5
15 15 15 15 15 15 15 15 15 15 15 15 15 14 14 14 14 14 14 13 13 13 13 13 13 13 13 13 12 12 12 12 12 12 12 12 12 12 11 11 11 11 11 10 10 10 10 10 10 10 10 9 9 9 9 8 8 8 7 7 7 6 6 6 6 6 6 5 5
15 15 15 15 15 15 15 15 15 15 15 15 14 14 14 14 14 14 13 13 13 13 13 13 13 13 13 12 12 12 12 12 12 12 12 12 11 11 11 11 11 10 10 10 10 10 10 10 10 10 9 9 9 8 8 8 8 8 7 7 7 6 6 6 6 6 5 5 5
15 15 15 15 15 15 15 15 15 15 15 15 14 14 14 14 14 13 13 13 13 13 13 13 13 13 13 12 12 12 12 12 12 12 12 11 11 11 11 11 11 11 10 10 10 10 10 10 9 9 9 9 8 8 8 8 7 7 7 7 6 6 6 6 6 6 5 5 5
15 15 15 15 15 15 15 15 15 15 15 15 14 14 14 14 13 13 13 13 13 13 13 13 13 12 12 12 12 12 12 12 12 11 11 11 11 11 11 11 11 11 11 10 10 10 10 10 9 9 9 8 8 8 7 7 7 7 6 6 6 6 6 6 6 5 5 5 5
15 15 15 15 15 15 15 15 15 14 14 14 14 14 14 13 13 13 13 13 13 13 13 12 12 12 12 12 12 12 12 11 11 11 11 11 11 11 11 10 10 10 10 10 10 10 10 9 9 9 8 8 8 7 7 7 7 6 6 6 6 6 6 5 5 5 5 5 4
14 14 14 15 15 15 15 14 14 14 14 14 14 13 13 13 13 13 13 13 13 13 13 12 12 12 12 12 11 11 11 11 11 11 11 11 11 11 10 10 10 10 10 10 10 9 9 9 9 8 8 8 7 7 7 7 7 6 6 6 5 5 5 5 5 5 5 4 4
14 14 14 14 14 14 14 14 14 14 14 13 13 13 13 13 13 13 13 13 13 13 12 12 12 12 12 11 11 11 11 11 11 11 11 11 11 10 10 10 10 10 10 9 9 9 9 9 8 8 8 7 7 7 7 7 6 6 6 6 5 5 5 5 4 4 4 4 4
14 14 14 14 14 14 14 14 14 13 13 13 13 13 13 13 13 13 12 12 12 12 12 12 12 11 11 11 11 11 11 11 11 11 11 10 10 10 10 9 9 9 9 9 9 9 9 8 8 8 7 7 7 7 7 6 6 6 6 5 5 5 4 4 4 4 4 3 3
14 14 14 14 14 14 14 13 13 13 13 13 12 12 12 12 12 12 12 12 12 12 12 11 11 11 11 11 12 12 11 11 11 11 10 10 10 10 9 9 9 9 9 9 9 9 8 8 8 7 7 7 7 7 6 6 6 5 5 5 5 4 4 4 4 3 3 3 3
14 13 13 13 13 13 13 13 13 12 12 12 12 12 12 12 12 12 12 12 12 12 11 11 11 11 11 11 11 11 11 11 11 10 10 10 10 9 9 9 9 9 9 9 9 8 8 8 7 7 7 7 6 6 6 6 6 5 5 5 4 4 4 3 3 3 3 3 3
13 12 12 12 12 12 12 12 12 12 12 12 12 12 12 12 12 12 12 12 12 11 11 11 12 12 11 11 11 11 11 10 10 10 10 10 9 9 9 9 9 9 8 8 8 8 7 7 7 7 7 6 6 6 5 6 5 5 5 4 4 4 3 3 3 3 3 3 3
11 12 12 12 12 12 12 12 12 11 11 11 12 12 12 12 12 12 12 11 11 11 11 12 12 11 11 11 11 10 10 10 9 10 10 9 9 9 9 9 8 8 8 8 8 7 7 7 7 7 6 6 6 5 5 5 5 5 4 4 4 3 3 3 3 3 3 3 3
11 11 11 11 11 11 11 11 11 11 11 11 11 11 11 11 11 11 11 11 11 11 11 11 11 11 11 10 10 10 9 9 9 9 9 9 9 9 9 8 8 8 8 8 7 7 7 7 7 7 6 6 5 5 5 5 5 4 4 4 3 3 3 3 3 3 3 3 3
10 10 11 11 11 11 11 11 11 11 11 11 11 11 11 11 11 11 11 11 11 11 11 11 11 10 10 10 10 9 9 9 9 9 9 9 9 8 8 8 8 8 8 7 7 7 7 7 7 7 6 6 5 5 5 5 4 4 4 3 3 3 3 3 3 3 3 4 4
10 10 10 10 10 10 10 10 10 10 11 11 11 11 11 11 11 11 11 11 11 11 11 11 10 10 10 10 9 9 9 9 9 9 9 9 8 8 8 8 8 7 7 7 7 7 7 7 7 7 6 5 5 5 4 4 4 4 4 3 3 3 3 3 3 3 3 4 4
10 10 10 10 10 10 10 10 10 10 10 11 11 11 11 11 11 11 11 11 11 11 11 10 10 10 10 9 9 9 9 9 9 9 9 8 8 8 8 7 7 7 7 7 7 7 7 6 6 6 6 5 5 5 4 4 4 4 4 4 4 4 4 3 4 4 4 4 4
10 10 10 10 10 10 10 10 10 10 11 11 11 11 11 11 11 11 11 11 11 10 10 10 10 9 9 9 9 9 9 9 8 8 8 8 8 8 7 7 7 7 7 7 7 6 6 6 5 5 5 5 5 5 4 4 4 4 4 4 4 4 4 4 4 4 4 4 4
9 9 9 9 9 9 10 10 10 10 10 11 11 11 11 11 11 10 10 10 10 10 10 9 9 9 9 9 9 9 8 8 8 8 8 8 7 7 7 7 7 7 7 6 6 6 5 5 5 4 4 5 5 5 4 4 4 4 4 4 4 4 4 4 4 4 4 4 4
9 9 9 9 9 9 9 10 10 10 10 10 10 10 10 10 10 10 10 10 9 9 9 9 9 8 8 8 8 8 8 8 8 8 7 7 7 7 7 7 7 7 6 6 6 5 5 5 5 4 4 5 5 5 4 4 4 4 4 4 4 4 4 4 4 4 4 4 4
9 9 9 9 9 9 9 9 9 9 9 9 9 10 10 10 9 9 9 9 9 8 8 8 8 8 8 8 8 8 8 7 7 7 7 7 7 7 7 7 7 6 6 6 5 5 5 5 5 5 5 5 5 5 4 4 4 4 4 4 4 4 4 4 4 5 5 4 4
9 9 9 9 9 9 9 8 9 9 9 9 9 9 9 9 9 9 8 8 8 8 8 8 8 8 8 8 7 7 7 7 7 7 6 6 6 6 6 6 6 6 6 6 5 5 5 5 5 5 5 5 5 5 4 4 4 4 4 4 4 5 5 5 5 5 5 5 4
9 9 9 9 8 8 8 8 8 8 8 8 8 8 8 8 8 8 8 8 8 8 8 8 8 8 7 7 7 7 7 6 6 6 6 6 6 6 6 6 6 6 6 6 5 5 5 5 5 5 5 5 5 5 4 4 4 4 4 4 4 5 5 5 5 5 5 5 4
9 9 9 8 8 8 8 8 8 8 8 8 8 8 8 8 8 8 8 8 8 8 7 7 7 7 7 7 6 6 6 6 6 6 6 6 6 6 6 6 6 6 6 5 5 5 5 4 4 5 5 5 5 5 5 5 5 4 4 4 4 4 4 4 4 4 4 4 4
9 9 9 8 8 8 8 8 8 8 8 8 8 8 8 8 7 7 7 7 7 7 7 7 7 6 6 6 6 6 6 6 6 6 6 6 6 6 6 6 6 6 5 5 5 5 4 4 5 5 5 5 5 5 5 5 5 4 4 4 4 4 4 4 4 4 4 4 4
9 9 9 9 8 8 8 8 8 8 8 7 7 7 7 7 7 7 7 7 7 7 6 6 6 6 6 6 6 6 6 6 6 6 6 6 6 6 6 5 5 5 5 5 5 5 4 4 5 5 5 5 5 5 5 5 4 4 4 4 4 4 4 4 4 3 3 4 4
8 9 9 9 8 8 8 8 8 8 7 7 7 7 7 7 7 7 7 7 7 6 6 6 6 6 6 6 6 6 5 5 5 5 5 5 6 6 5 5 5 5 5 5 5 5 4 5 5 5 5 5 5 5 4 4 4 4 4 4 4 4 4 4 4 4 4 4 4
8 8 8 8 8 8 8 8 7 7 7 7 7 7 7 7 7 7 6 6 6 6 6 6 5 5 5 5 5 5 5 5 5 5 5 5 5 5 5 5 5 5 4 5 5 5 5 5 5 5 5 5 5 5 4 4 4 4 4 4 4 4 4 4 4 4 4 4 4
Height
757 758 760 762 763 764 766 767 769 770 771 772 774 775 776 777 778 779 780 781 782 783 783 784 785 786 787 787 788 789 790 792 792 794 795 796 797 797 798 798 799 801 802 803 804 805 805 806 807 807 807 808 809 810 811 811 812 812 812 813 813 814 815 815 815 815 816 816 817
755 757 759 760 762 763 765 766 767 769 770 771 772 774 775 776 777 778 779 780 781 782 782 783 784 785 786 786 787 788 789 790 792 793 794 795 796 797 797 797 799 800 801 802 803 804 804 805 805 806 806 807 807 808 809 810 810 811 811 811 812 812 813 813 814 814 814 815 815
754 756 757 759 760 762 763 765 766 767 769 770 772 773 774 775 776 777 778 779 780 781 782 782 783 784 785 785 786 787 788 789 791 792 793 794 795 796 796 797 798 799 800 801 802 802 803 804 804 805 805 806 806 807 807 808 808 809 809 810 810 811 811 812 812 812 813 813 813
753 755 756 757 759 760 762 763 765 766 768 769 771 772 773 774 775 776 777 778 779 780 781 781 782 783 784 785 786 787 788 789 790 791 792 793 794 794 795 796 797 798 799 800 801 801 802 802 803 803 804 804 805 806 806 806 807 807 808 808 809 809 810 811 811 811 811 812 812
752 753 755 756 758 759 761 762 763 765 767 768 770 771 772 773 774 775 776 777 778 778 779 780 782 782 783 784 785 786 787 788 789 790 792 792 793 794 794 795 796 796 797 798 799 800 800 801 802 802 802 803 804 804 805 805 806 806 807 807 807 808 809 809 809 809 810 810 811
751 752 754 755 757 758 760 761 763 764 766 767 768 770 771 772 773 774 775 776 776 777 778 780 781 782 782 783 784 786 787 787 788 789 791 792 792 793 793 794 795 795 796 797 797 798 799 799 800 801 801 802 803 804 804 804 804 805 805 806 807 807 807 807 807 808 808 809 809
749 751 753 754 756 757 759 760 762 763 765 766 767 769 770 771 772 773 773 774 775 777 778 779 780 781 782 783 784 785 786 787 787 788 790 791 792 792 793 793 794 794 795 796 797 797 798 798 799 800 800 801 802 802 802 802 803 803 804 805 805 806 806 806 806 806 807 807 808
749 750 752 753 755 757 758 759 761 762 764 765 767 767 769 770 771 772 772 773 775 776 777 778 779 780 781 782 783 784 785 786 787 787 788 789 790 791 792 792 793 794 794 795 796 796 797 797 798 799 799 800 800 801 801 801 802 802 803 803 803 804 804 805 805 805 806 806 807
748 750 751 753 754 756 757 759 760 762 763 764 765 767 768 769 770 771 772 773 774 776 777 777 779 780 781 782 782 783 784 785 786 787 788 788 789 790 791 792 792 793 793 794 795 795 796 797 797 798 798 798 799 799 800 800 801 802 802 802 802 803 803 804 804 804 804 805 806
747 749 751 752 753 755 757 758 759 761 762 763 765 766 767 768 769 770 771 772 774 775 776 777 778 779 780 781 782 783 784 785 786 786 787 788 789 789 790 790 791 792 793 793 794 795 795 796 796 797 797 798 798 798 799 799 800 801 801 802 802 802 802 803 803 803 803 804 805
746 748 750 751 753 754 756 757 759 760 762 763 764 766 767 767 768 769 771 772 773 775 776 777 778 778 779 780 781 782 783 784 785 786 787 787 788 789 789 790 790 791 792 793 793 794 794 795 795 796 796 797 797 798 798 798 799 800 800 801 801 801 802 802 802 802 803 803 804
745 747 749 750 752 754 755 757 758 760 761 762 764 765 766 766 767 769 770 772 773 774 775 776 777 777 778 780 780 781 782 783 784 785 786 787 787 788 789 789 790 791 791 792 792 793 793 794 795 795 796 796 796 797 797 797 798 799 799 800 800 800 801 801 801 801 802 802 803
745 747 748 750 751 753 755 756 757 759 761 762 763 764 765 766 767 768 770 771 772 773 775 775 776 777 778 779 780 781 782 782 783 784 785 786 787 787 788 789 789 790 791 791 792 792 793 793 794 794 795 795 796 796 796 797 797 798 799 799 799 800 800 800 800 800 801 802 802
744 746 747 749 751 752 754 756 757 758 760 761 762 763 764 766 767 768 769 770 772 773 774 774 775 777 777 779 780 780 781 782 783 783 784 785 786 787 787 788 789 790 790 791 791 792 792 793 793 794 794 795 795 795 796 796 797 797 798 798 798 799 799 799 799 799 800 801 801
744 745 747 748 750 752 753 755 756 758 759 760 761 762 764 765 766 767 768 770 771 772 773 774 775 776 777 778 779 780 781 782 782 783 783 784 785 786 787 788 788 789 789 790 791 791 792 792 792 793 793 794 794 795 795 795 796 796 797 797 797 798 798 798 798 798 799 799 800
743 745 746 748 749 751 752 754 756 757 758 760 761 762 763 765 766 767 768 769 770 771 772 773 774 776 777 777 778 779 780 781 782 782 783 784 785 785 786 787 788 788 789 789 790 791 791 792 792 792 793 793 794 794 794 795 795 795 796 796 796 797 797 797 797 797 798 798 799
742 744 746 747 749 750 752 753 755 756 757 759 760 762 763 764 765 766 767 768 769 771 772 773 774 775 776 777 778 778 779 780 781 782 783 783 784 785 786 787 787 787 788 789 790 790 790 791 792 792 792 793 793 794 794 794 794 794 795 795 796 796 796 796 797 797 797 798 798
742 743 745 747 748 750 751 752 754 756 757 758 760 761 762 763 764 765 767 767 769 770 771 773 774 774 775 776 777 778 779 780 781 782 782 783 784 784 785 786 786 787 787 788 789 789 790 791 791 792 792 792 793 793 793 793 794 794 794 794 795 795 795 796 796 796 797 797 797
741 743 744 746 747 749 751 752 753 755 757 758 759 761 762 763 764 765 766 767 769 770 771 772 773 774 775 776 777 778 779 780 780 781 782 782 783 784 785 786 786 787 787 788 788 789 789 790 791 791 792 792 792 793 793 793 793 793 794 794 794 794 795 795 795 795 796 796 797
741 742 744 745 747 748 750 752 753 755 756 757 759 760 762 762 763 764 766 767 768 770 771 772 773 774 775 776 777 778 778 779 780 781 782 782 783 784 785 785 786 787 787 787 788 789 789 790 790 791 791 792 792 792 792 792 793 793 793 793 794 794 794 794 795 795 795 796 796
740 742 743 745 747 748 750 751 753 754 756 757 758 760 761 762 763 764 766 767 768 769 771 772 773 774 775 776 777 777 778 779 779 780 781 782 783 784 784 785 786 786 787 787 788 788 789 789 790 791 791 791 792 792 792 792 792 793 793 793 793 793 794 794 794 794 795 795 795
740 742 743 745 747 748 750 751 752 754 755 757 758 759 760 761 763 764 766 767 768 769 770 772 772 773 774 775 776 777 777 778 779 780 781 782 783 783 784 785 785 786 786 787 787 788 788 789 790 790 791 791 791 791 792 792 792 792 792 793 793 793 793 794 794 794 794 795 795
740 742 743 745 746 748 749 751 752 753 755 756 758 759 760 761 763 764 765 767 768 769 770 771 772 773 774 775 776 776 777 778 779 780 781 782 782 783 784 784 785 785 786 786 787 787 788 789 789 790 790 791 791 791 792 792 792 792 792 792 793 793 793 794 794 794 794 795 795
740 741 743 744 746 747 749 750 752 753 755 756 757 758 760 761 762 764 765 766 767 769 770 771 772 772 773 774 775 777 777 778 779 780 781 782 782 783 783 784 784 785 786 786 787 787 788 789 789 789 790 790 791 791 791 791 791 792 792 792 792 793 793 794 794 794 795 795 796
739 741 742 744 746 747 748 750 752 753 754 756 757 758 760 761 762 763 765 766 767 768 769 770 771 772 773 774 775 777 777 778 779 780 780 781 782 782 783 783 784 785 786 786 787 787 788 788 788 789 789 790 790 791 791 791 791 791 792 792 792 793 793 794 794 794 795 795 796
738 740 742 743 745 747 748 750 752 753 754 755 757 758 760 761 762 763 765 766 767 768 769 770 771 772 773 774 775 776 777 778 779 779 780 781 782 782 783 783 784 785 786 786 787 787 787 788 788 788 789 789 790 790 790 790 791 791 792 792 792 793 793 794 794 794 794 795 795
738 740 742 743 745 747 748 750 751 752 754 755 757 758 759 761 762 763 764 766 767 768 769 770 771 772 773 774 775 776 777 778 778 779 780 780 781 782 783 783 784 785 785 786 786 787 787 787 788 788 789 789 790 790 790 790 791 791 791 792 792 792 793 793 793 794 794 794 795
738 740 742 743 745 747 748 749 751 752 754 755 757 758 759 761 762 763 764 765 767 768 769 770 771 772 773 774 775 776 777 777 778 779 780 780 781 782 783 783 784 785 785 786 786 786 787 787 788 788 788 789 789 790 790 790 790 791 791 791 792 792 792 793 793 793 793 794 794
739 740 742 743 745 746 748 749 751 752 754 755 757 758 759 761 762 763 764 765 767 768 769 770 771 772 773 774 775 776 777 777 778 779 779 780 781 782 782 783 784 784 785 785 786 786 787 787 787 788 788 789 789 789 790 790 790 790 790 791 791 791 792 792 792 792 793 794 794
739 740 742 743 745 746 748 749 751 752 754 755 757 758 759 761 762 763 764 765 767 768 769 770 771 772 773 774 775 776 776 777 778 779 779 780 781 782 782 783 783 784 785 785 786 786 787 787 787 788 788 788 789 789 789 790 790 790 790 790 790 791 791 791 792 792 793 794 794
739 740 742 743 745 747 748 749 751 752 754 755 757 758 759 761 762 763 764 765 767 768 769 770 771 772 773 774 774 775 776 777 778 779 780 780 781 782 782 783 783 784 784 785 786 786 787 787 787 788 788 788 789 789 789 790 790 790 790 790 790 790 791 791 792 792 793 793 794
739 741 742 743 745 747 748 749 751 752 754 756 757 758 759 761 762 763 764 766 767 768 769 770 771 772 773 774 774 775 776 777 778 779 780 780 781 782 782 783 783 784 784 785 785 786 787 787 787 788 788 788 789 789 789 790 790 790 790 790 790 790 791 791 792 792 793 793 794
739 741 742 743 745 747 748 750 751 753 754 756 757 758 759 761 762 763 765 766 767 768 769 770 771 772 773 774 775 776 776 777 778 779 780 781 781 782 782 783 783 784 784 785 786 786 787 787 788 788 788 788 789 789 790 790 790 790 790 790 790 790 791 791 792 792 793 793 794
739 741 742 743 745 747 748 750 751 753 754 756 757 758 760 761 762 763 765 766 767 768 769 770 771 772 773 774 775 776 777 777 778 779 780 781 781 782 782 783 783 784 785 785 786 786 787 787 788 788 789 789 789 790 790 790 790 790 790 790 790 790 791 791 792 792 792 793 794
739 740 742 743 745 747 748 750 751 753 754 756 757 758 760 761 762 763 765 766 767 768 769 770 771 772 773 774 775 776 777 778 778 779 780 781 781 782 782 783 783 784 784 785 786 786 787 788 788 789 789 789 789 790 790 790 790 790 790 790 790 791 791 792 792 792 792 793 793
739 740 742 743 745 747 748 750 752 753 754 756 757 758 760 761 762 763 765 766 767 768 769 770 771 772 773 774 775 776 777 778 779 779 780 781 781 782 782 783 784 784 784 785 786 786 787 788 788 789 789 789 790 790 790 790 790 790 790 790 791 791 791 792 792 792 792 793 793
739 740 742 743 745 747 748 750 752 753 754 756 757 758 760 761 762 764 765 766 767 768 769 771 772 773 774 774 776 777 777 778 779 780 780 781 782 782 783 783 784 784 785 785 786 786 787 788 788 789 789 790 790 791 791 790 790 790 790 791 791 791 792 792 792 793 793 793 794
739 741 742 743 745 747 749 750 752 753 754 756 757 759 760 761 763 764 766 767 767 769 770 771 772 773 774 775 776 777 777 778 779 780 781 781 782 783 783 784 784 785 785 786 786 787 787 788 788 789 789 790 791 791 791 791 791 791 791 791 792 792 792 792 793 793 793 794 794
740 741 742 744 745 747 749 751 752 753 754 756 757 759 760 762 763 764 766 767 768 769 770 771 772 773 774 775 776 777 778 778 779 780 781 782 782 783 783 784 785 785 785 786 786 787 787 788 789 789 790 791 791 791 792 792 792 792 792 792 792 793 793 793 794 794 794 795 795
740 742 743 744 746 747 749 751 752 753 755 756 758 759 761 762 763 764 766 767 768 769 771 772 772 774 775 776 777 777 778 779 780 781 781 782 782 783 784 784 785 786 786 787 787 787 788 789 789 790 791 791 791 792 792 792 792 792 793 793 793 794 794 794 794 795 795 795 796
741 742 743 745 746 748 749 751 752 754 755 757 758 759 761 762 763 765 766 767 769 770 771 772 773 774 775 776 777 778 779 780 781 781 782 782 783 783 784 785 786 787 787 787 788 788 789 789 790 790 791 791 792 792 792 793 793 793 794 794 794 795 795 795 795 795 795 796 796
Wind_Speed
21 20 20 19 19 18 18 17 17 16 16 16 16 16 15 15 14 14 14 14 14 14 14 15 15 15 16 18 20 21 22 22 22 22 22 21 22 23 25 27 28 27 26 25 23 23 24 26 27 29 29 29 29 27 26 25 26 27 29 30 30 31 32 32 32 32 32 31 30
21 21 20 19 18 18 17 17 16 16 16 16 16 16 15 15 14 14 14 14 14 14 14 13 14 15 16 19 21 22 22 23 23 22 22 21 21 22 24 25 25 24 23 22 22 22 24 26 27 28 29 30 29 29 28 27 27 28 29 30 30 31 31 32 32 32 32 31 30
22 21 20 19 19 18 17 17 16 17 17 16 15 15 15 15 14 14 14 14 14 14 13 13 15 16 18 19 20 21 21 22 22 22 21 21 21 22 23 23 22 22 21 21 21 22 24 24 25 26 27 28 28 28 27 27 28 28 28 29 30 30 30 31 32 32 32 31 30
22 21 20 20 20 19 18 17 17 18 17 16 15 15 14 14 14 13 13 13 14 14 15 15 16 17 18 19 20 20 20 20 20 20 20 20 21 22 22 22 22 22 22 22 23 23 23 23 23 25 26 27 26 25 25 26 27 28 28 29 29 29 29 30 31 32 32 32 30
22 21 21 20 20 20 19 18 18 18 18 16 15 15 14 14 13 13 13 14 16 17 18 17 15 16 17 18 19 19 19 19 19 19 19 19 19 20 22 22 23 24 25 25 25 25 24 24 25 26 27 27 26 25 25 27 27 28 28 28 28 28 28 29 31 32 32 31 29
22 21 20 19 20 19 18 17 18 18 17 16 16 15 15 14 14 14 15 16 18 19 19 17 16 15 16 17 17 17 18 18 19 19 18 16 16 18 20 22 23 24 25 25 26 26 26 26 26 27 27 27 26 26 27 28 28 28 27 27 26 27 28 29 31 32 31 30 28
21 21 20 19 20 19 18 17 18 18 17 16 16 16 16 15 15 16 18 19 19 18 18 18 17 17 16 17 16 16 17 17 18 19 19 17 17 17 18 19 20 22 23 24 25 25 26 26 26 26 26 26 26 27 28 28 28 27 26 26 27 28 29 30 31 31 30 29 27
20 20 20 19 19 19 18 18 18 18 17 16 16 17 17 16 17 18 20 20 18 17 17 17 17 17 16 16 16 16 16 16 17 19 19 20 19 18 18 18 19 20 21 22 23 24 24 25 25 25 25 26 26 26 27 27 27 26 26 26 27 28 29 29 30 30 29 28 26
20 20 20 19 19 19 18 18 18 18 17 17 17 17 17 17 18 20 20 19 17 16 15 16 16 15 15 15 15 15 15 16 16 16 18 19 19 19 19 19 19 19 20 20 20 21 22 23 24 24 24 25 24 25 25 25 25 25 25 26 27 27 28 29 28 28 27 26 24
19 20 19 19 19 19 18 18 18 18 17 17 17 17 17 18 20 20 20 18 16 14 14 13 13 14 14 15 15 15 15 15 14 14 15 16 17 17 18 18 19 19 19 18 19 20 21 22 22 22 23 23 23 23 24 24 24 24 25 25 26 26 26 27 27 26 26 25 23
19 19 19 19 19 18 18 18 17 17 17 16 16 16 17 20 21 20 19 17 15 14 13 12 13 14 15 16 16 16 15 15 14 14 14 15 15 16 16 16 17 17 18 18 19 20 20 20 20 20 20 21 22 22 23 23 24 24 24 24 24 24 24 25 25 24 24 23 22
19 19 19 18 19 19 18 17 17 16 16 15 15 16 18 20 20 19 18 16 15 14 13 13 14 15 16 15 15 15 15 15 15 14 14 14 14 14 14 14 15 16 17 18 19 19 19 18 18 18 19 20 20 21 21 22 23 23 23 22 22 22 22 22 23 22 22 22 21
18 18 18 18 19 19 18 17 16 16 15 15 15 16 18 19 19 19 18 16 16 14 13 14 16 16 15 14 14 14 14 15 14 14 13 13 13 13 13 13 14 15 16 17 17 17 16 16 16 16 17 18 19 19 20 20 21 21 21 20 20 20 21 21 21 21 21 21 20
18 18 18 18 19 18 18 17 16 15 15 15 16 16 16 16 17 18 18 17 16 15 14 14 15 15 14 13 13 13 13 13 13 13 13 13 13 13 13 13 13 13 14 15 15 14 14 13 13 14 16 17 17 18 18 18 18 19 19 19 19 19 20 20 20 20 20 20 20
18 18 18 18 19 18 17 17 15 14 14 14 16 16 15 14 15 17 18 17 16 16 15 14 14 14 13 12 12 13 13 12 13 13 13 13 13 13 13 12 12 13 13 13 13 13 13 12 12 13 14 15 16 16 17 16 16 16 17 17 18 19 19 20 20 20 20 20 20
18 18 18 18 18 18 17 16 14 14 14 14 15 15 14 13 14 16 17 17 17 17 15 14 13 13 13 13 13 13 13 13 12 12 12 12 12 12 12 12 12 13 13 13 12 12 12 12 12 12 12 13 14 15 15 15 15 15 15 15 16 17 18 19 19 20 20 20 20
18 18 18 18 18 18 17 16 14 14 14 14 14 15 14 13 15 16 17 18 17 16 15 14 13 12 12 13 13 13 12 12 11 10 10 10 10 11 11 12 13 13 13 12 12 11 11 11 11 11 12 12 13 14 14 14 14 14 14 14 15 16 17 18 18 19 19 19 19
18 18 18 18 18 18 17 16 14 14 14 14 14 15 15 14 15 16 16 16 16 15 14 13 12 12 11 11 11 11 11 10 10 9 9 10 10 10 11 11 12 12 12 11 11 11 10 10 10 11 11 11 12 13 13 13 13 13 13 14 14 15 16 17 17 18 18 18 18
18 18 18 18 18 17 17 16 15 14 14 14 15 15 15 15 15 16 15 15 14 14 13 12 12 11 10 9 9 9 10 10 10 10 10 10 10 10 10 10 10 10 10 10 10 10 9 9 9 9 10 10 11 11 12 12 12 12 13 13 14 15 15 16 17 17 17 17 17
17 17 17 17 17 17 16 15 15 14 14 14 15 15 15 15 16 16 14 13 13 13 12 12 11 10 9 8 8 9 10 10 10 9 9 9 9 9 9 8 9 8 8 8 9 8 8 8 8 8 8 9 9 9 10 10 10 11 11 12 13 14 15 15 16 16 16 16 16
17 17 17 17 16 16 15 15 14 14 14 14 15 15 14 15 16 15 14 13 12 12 12 11 10 9 9 9 10 10 10 9 8 8 8 8 8 8 8 8 8 8 7 7 7 6 6 6 7 7 7 7 7 7 8 8 9 9 10 11 12 13 13 14 15 15 15 15 15
16 16 16 16 15 15 14 14 14 14 14 14 14 14 15 15 15 14 13 12 12 11 10 10 9 9 10 10 10 10 8 7 6 6 7 7 7 7 7 7 7 6 5 5 5 5 5 5 6 6 6 6 6 6 6 6 7 8 9 10 10 11 12 12 13 13 13 13 13
15 15 15 14 14 14 14 14 14 14 14 14 14 14 15 15 14 13 12 12 11 11 10 9 10 10 10 10 9 8 7 6 6 6 6 6 6 6 6 5 4 4 4 4 3 4 4 5 5 6 6 6 6 6 5 6 6 7 8 9 10 10 10 10 11 11 11 11 12
15 15 14 14 14 15 15 15 15 15 14 14 14 14 14 14 14 13 12 12 11 10 10 10 10 10 9 8 7 6 6 6 6 6 6 5 5 4 3 2 2 2 2 2 2 3 4 5 5 5 4 5 5 5 5 6 6 7 7 8 9 9 9 9 9 9 9 10 11
16 16 16 15 15 16 16 16 15 14 14 14 14 14 13 13 13 12 12 11 11 10 10 10 9 8 7 6 6 5 5 6 6 6 5 4 3 2 2 1 1 2 2 2 2 2 3 3 3 3 3 3 4 5 5 5 5 5 6 7 8 8 8 8 8 9 9 10 11
17 17 17 17 16 16 15 15 14 14 14 14 14 14 13 13 12 12 12 12 11 10 9 8 7 7 6 6 6 6 6 7 6 5 4 4 3 2 2 2 2 2 2 2 2 2 2 1 1 1 1 2 4 5 5 5 5 5 6 6 7 7 7 7 8 9 10 11 12
18 18 17 17 16 16 15 15 14 14 14 14 14 14 13 13 12 12 11 11 10 9 8 7 7 6 6 7 7 8 8 7 6 5 4 3 3 3 3 2 2 2 2 2 2 2 2 2 1 1 1 1 3 4 5 5 5 5 6 6 6 6 7 8 9 9 10 11 11
17 17 17 17 16 16 15 15 15 14 14 14 14 13 13 12 12 11 11 10 9 8 7 7 7 7 7 8 8 8 8 7 6 5 5 4 4 4 4 4 4 4 4 4 4 4 4 3 3 3 2 1 2 3 4 4 4 5 5 6 6 7 7 8 9 9 10 10 10
17 17 17 17 17 16 16 15 15 15 14 14 13 13 12 11 10 10 9 9 8 7 7 7 7 8 8 8 8 8 7 6 6 6 6 6 6 5 5 5 6 6 6 5 5 5 4 4 3 3 3 2 2 2 3 3 4 4 5 5 6 7 8 8 8 8 8 9 9
17 17 18 18 17 17 16 15 15 14 14 14 13 12 11 11 10 9 9 9 8 7 7 7 8 8 9 9 9 8 8 7 8 8 7 7 7 6 6 6 7 7 7 6 6 5 5 4 3 3 3 3 2 1 1 2 3 4 4 5 5 6 6 7 7 7 8 8 8
17 18 18 18 18 17 16 16 15 14 14 13 13 13 12 12 11 10 10 9 9 8 8 8 9 9 9 10 10 9 9 9 9 9 8 8 7 7 7 7 7 7 7 7 7 6 5 4 3 2 2 3 3 3 2 1 2 3 4 4 4 5 5 6 6 7 7 7 7
18 18 18 18 18 18 17 16 15 15 14 14 14 14 13 13 12 11 11 10 10 10 10 10 10 10 11 11 11 11 11 11 10 10 9 8 8 7 7 7 7 7 7 7 7 6 5 4 4 4 3 3 4 4 3 1 1 2 3 4 4 5 5 5 6 6 6 7 7
18 18 18 19 19 18 18 17 16 16 15 15 15 15 14 14 13 13 12 12 12 12 12 12 12 12 12 12 12 12 12 11 11 10 10 9 9 9 8 8 8 8 8 8 7 6 6 5 5 5 4 2 2 3 2 2 1 2 3 4 5 5 5 6 6 5 5 5 5
19 19 19 19 20 19 19 18 17 17 17 16 16 15 15 15 15 14 14 14 14 14 14 14 14 14 14 13 13 13 12 12 11 11 10 10 10 10 10 9 9 9 9 8 8 7 6 6 6 6 5 4 1 1 1 1 1 3 4 5 6 6 6 6 5 5 5 4 4
20 20 20 20 20 20 20 19 18 18 18 17 17 16 16 16 16 16 16 16 16 16 16 16 15 15 15 14 14 13 12 12 11 11 10 10 10 10 10 10 10 10 9 9 9 8 7 6 6 6 6 5 2 0 1 1 2 3 5 6 6 6 6 6 6 6 6 5 5
21 21 21 22 21 21 20 19 19 19 19 18 18 18 17 17 17 17 17 18 18 18 17 17 16 16 16 15 14 14 13 12 12 11 11 11 11 11 11 11 10 10 10 10 10 9 8 7 7 7 8 6 3 1 1 2 3 4 6 6 6 7 7 7 6 7 7 6 6
21 22 23 23 22 21 20 20 20 20 19 19 19 19 19 19 19 18 19 19 19 18 18 18 17 17 16 16 16 15 14 13 13 12 12 11 11 11 11 11 10 10 10 10 10 9 8 7 7 8 8 5 3 2 3 4 5 6 7 7 7 7 7 7 7 7 7 7 6
21 22 23 23 22 21 20 20 20 20 20 20 20 21 20 20 20 19 19 19 19 19 18 18 17 17 17 17 17 16 15 14 13 13 12 12 12 11 11 11 11 10 10 11 11 10 8 7 7 7 6 5 3 3 4 5 7 8 8 8 7 8 8 8 7 7 6 6 6
22 22 23 23 22 22 21 21 21 21 22 22 22 21 21 21 20 20 19 19 19 19 19 18 18 18 18 17 17 16 16 15 14 13 13 13 12 12 11 11 11 11 11 11 11 10 9 7 7 6 5 4 4 4 5 6 8 8 8 8 8 8 8 8 7 7 6 6 5
22 23 23 23 23 22 22 22 22 22 23 23 22 22 21 22 22 21 20 19 19 19 19 19 19 18 18 17 17 16 16 15 14 13 13 13 13 13 12 11 11 10 10 10 10 10 9 7 6 6 5 5 4 5 6 7 8 8 7 7 7 7 7 7 6 6 5 5 4
23 23 23 23 23 23 23 23 23 23 23 23 23 23 23 23 23 22 21 20 19 19 19 19 19 18 18 17 17 16 16 15 14 13 13 13 13 13 12 11 11 10 9 9 9 9 8 7 6 5 5 5 5 5 6 7 6 6 6 6 6 6 6 6 6 5 4 4 3
Wind_Direction
195 194 193 192 190 189 189 191 190 190 189 190 190 190 190 191 192 193 195 198 200 203 206 209 210 212 214 215 214 213 213 213 213 213 214 216 218 221 224 226 226 226 225 224 225 227 229 230 230 231 233 235 236 237 238 240 241 242 243 243 240 238 237 237 237 236 236 235 235
194 193 192 190 188 187 188 188 189 189 190 190 191 191 191 191 193 194 197 199 202 204 205 207 209 211 214 218 219 219 218 217 216 216 216 217 219 222 225 227 227 227 225 225 226 228 230 230 230 231 234 237 239 239 239 241 242 244 245 245 242 240 238 238 238 238 238 236 234
194 192 191 189 188 187 187 187 187 188 190 191 191 191 192 193 195 197 199 202 203 204 205 207 209 212 216 220 222 223 222 221 220 219 218 219 221 223 226 227 227 226 225 224 224 226 228 229 230 232 235 237 238 238 238 240 242 244 245 245 243 241 239 239 240 240 239 236 233
193 192 191 190 188 187 187 187 188 188 189 190 191 192 193 195 197 199 201 202 203 205 207 210 211 215 219 221 223 223 223 223 222 221 220 221 224 225 227 227 228 227 226 225 225 226 228 229 232 234 235 235 235 235 237 240 244 246 246 245 244 242 240 241 242 242 240 236 232
193 193 192 191 189 188 188 188 187 188 189 190 191 192 194 196 198 199 201 203 207 211 213 213 213 216 221 223 223 222 222 222 221 220 220 222 224 226 227 229 230 230 230 230 229 230 231 233 235 236 236 236 236 238 241 246 249 250 249 247 245 243 242 243 244 245 242 237 232
192 192 192 191 189 188 188 188 188 188 189 190 191 193 194 196 198 200 203 208 212 215 216 215 214 217 221 223 222 221 222 222 222 220 218 218 220 223 227 229 231 233 234 234 234 234 234 235 236 237 238 239 240 242 245 249 251 252 250 248 247 245 244 245 247 247 244 239 233
191 191 190 189 188 187 187 187 187 187 188 190 192 193 195 197 200 204 209 213 215 215 216 217 217 219 222 223 222 221 221 223 224 223 220 216 217 220 224 228 231 234 236 237 237 237 237 237 237 238 240 242 242 243 245 248 250 250 250 248 247 246 246 247 249 249 246 241 234
189 189 189 189 187 187 186 186 186 186 188 191 193 195 197 200 203 208 213 215 214 214 216 218 219 220 222 224 222 220 221 224 227 227 226 223 222 223 225 227 230 234 237 239 239 238 239 239 239 239 241 242 242 243 244 246 248 248 247 246 247 247 248 249 250 250 247 242 235
188 189 189 188 187 186 186 185 185 186 188 192 195 197 199 201 207 211 214 214 213 213 215 218 218 217 218 221 221 220 220 224 226 229 230 229 227 226 226 228 229 232 236 239 240 240 241 241 241 241 241 242 242 244 246 247 248 247 247 246 247 249 251 252 251 250 246 242 234
186 187 187 186 185 185 185 184 185 187 189 192 195 196 199 204 210 213 214 213 212 211 212 213 212 211 212 217 219 220 221 223 225 227 230 230 228 226 226 228 230 233 235 237 239 240 241 242 241 241 242 243 244 246 249 251 250 249 248 248 248 250 252 253 251 248 245 240 233
184 184 184 184 184 184 183 183 185 187 190 192 194 195 199 206 211 213 213 211 209 208 208 208 207 209 213 218 221 223 224 225 224 225 227 229 228 228 228 231 233 234 235 236 238 240 241 241 241 241 243 246 248 250 252 253 252 251 249 249 250 250 252 253 252 249 244 240 233
182 182 182 182 182 182 182 182 185 187 190 191 191 194 201 208 211 211 210 209 208 207 206 207 210 214 218 221 224 227 228 228 225 224 224 227 229 231 233 236 238 238 238 239 241 242 243 244 245 246 248 250 252 253 254 254 253 251 250 250 250 251 251 253 253 251 247 242 236
181 180 180 181 180 180 181 182 184 187 188 190 190 195 202 208 210 210 208 208 208 206 206 210 216 220 221 223 226 227 228 227 224 223 223 225 229 232 235 239 241 241 241 244 246 247 247 249 251 253 253 254 255 256 256 256 254 252 251 250 251 251 252 253 254 253 250 245 238
179 178 178 179 179 179 181 182 184 186 187 188 190 196 200 203 207 209 209 209 208 207 208 214 220 222 222 222 224 225 224 223 222 222 223 225 228 230 232 235 238 240 242 245 248 248 248 250 255 257 257 256 256 258 259 259 258 256 254 253 252 252 253 254 255 254 252 247 241
178 178 178 178 178 179 181 182 183 184 184 185 190 194 195 195 201 207 209 208 208 209 212 216 221 223 222 219 220 220 219 219 222 224 225 226 230 231 231 230 232 235 238 242 246 248 248 250 254 258 259 258 258 259 261 262 262 261 258 256 255 254 254 255 255 255 252 249 243
177 178 178 178 178 179 181 181 182 183 183 184 188 191 190 190 198 205 207 207 210 213 215 217 220 223 223 219 218 219 220 223 226 227 227 229 232 233 231 228 227 231 235 238 241 245 248 251 254 257 258 259 259 260 261 263 264 263 261 260 258 257 256 256 256 255 254 251 245
177 177 178 178 179 180 180 180 181 181 182 182 185 187 188 190 198 204 207 209 211 214 217 218 221 222 223 223 222 222 223 225 228 228 228 230 233 234 232 229 229 233 237 237 237 241 247 252 256 258 259 259 258 259 262 264 265 265 264 262 260 259 258 258 258 257 255 253 248
176 176 177 178 179 180 180 180 180 180 180 180 183 186 188 193 199 204 208 212 213 215 215 215 218 221 223 223 225 225 224 222 222 223 224 227 231 232 231 231 235 241 244 243 241 245 251 256 259 261 262 261 260 261 264 266 268 268 267 264 263 262 261 259 259 258 256 253 249
174 175 176 177 178 179 179 179 179 179 178 180 183 186 188 194 200 204 206 209 212 214 212 210 213 217 219 218 219 221 221 219 218 218 220 225 229 231 232 235 241 246 249 248 247 251 256 260 263 263 262 262 263 265 268 270 272 272 270 267 265 264 262 260 259 259 257 254 249
173 174 175 176 177 177 178 177 177 177 178 181 184 185 188 195 202 204 204 204 208 210 210 208 208 209 207 205 205 210 216 220 219 218 221 227 231 232 232 234 239 243 245 245 246 251 257 261 263 263 262 264 265 268 271 274 275 274 272 269 267 265 263 262 261 260 258 255 248
171 172 174 174 175 175 175 175 175 175 178 182 184 184 187 196 202 203 201 201 204 207 207 204 201 196 193 194 199 206 214 220 220 220 223 227 229 229 229 231 235 239 241 242 245 251 258 261 261 260 259 261 263 269 274 276 276 274 273 271 268 267 265 264 262 260 257 252 244
170 171 171 171 171 171 170 170 171 174 177 180 182 184 189 195 198 197 197 199 201 201 198 194 190 189 191 197 204 210 214 218 218 218 220 221 220 221 223 227 233 240 243 244 249 255 259 258 256 254 253 253 260 269 275 274 272 271 270 270 268 267 266 264 262 258 254 246 236
166 166 166 166 165 165 165 167 171 175 177 178 179 184 190 192 190 190 193 196 197 193 188 185 187 192 198 205 211 213 214 212 210 208 209 210 211 213 217 224 235 245 250 251 254 252 250 248 248 250 252 254 262 267 267 263 261 263 265 265 264 264 262 260 256 251 244 235 224
161 160 160 160 160 163 167 171 173 174 174 174 177 183 188 189 189 190 192 193 192 188 185 188 195 201 206 210 212 212 209 206 201 196 195 198 202 207 212 220 232 244 247 243 234 233 236 240 244 249 256 262 265 262 257 253 255 258 261 260 260 258 256 250 244 237 228 220 213
158 158 159 159 161 165 169 171 171 170 171 174 179 182 184 186 188 189 190 189 187 187 190 196 201 205 207 208 207 204 201 196 192 188 185 185 188 192 196 196 191 203 208 203 191 202 221 235 245 255 263 265 261 255 252 252 255 256 255 253 253 251 246 239 235 228 220 214 210
161 162 162 162 163 165 166 167 166 167 171 177 181 181 180 181 182 185 186 187 187 188 192 197 200 201 201 200 197 193 189 185 183 180 174 169 167 169 175 177 180 180 178 165 158 174 197 216 231 263 266 259 252 250 252 256 253 248 244 245 247 243 237 229 225 222 219 217 213
162 163 163 164 163 163 163 164 164 167 171 176 177 178 179 178 177 180 184 186 187 187 188 190 191 192 192 191 189 185 183 180 173 165 154 147 143 148 154 159 158 145 128 118 120 129 136 135 132 139 186 247 250 251 256 260 255 247 241 240 240 237 230 225 225 223 220 218 217
161 162 163 163 161 161 163 164 164 166 168 170 173 175 176 175 176 178 181 182 181 180 180 181 183 183 184 185 183 181 177 171 161 150 143 139 139 141 143 142 134 123 115 117 121 124 126 130 135 141 151 190 238 250 256 257 252 245 240 237 236 233 231 229 229 227 223 219 217
158 159 160 160 160 161 163 163 163 163 165 168 170 171 170 170 171 172 172 171 170 171 175 178 177 176 175 175 173 170 165 157 149 143 140 138 139 139 138 135 130 127 127 128 129 130 133 136 138 141 145 156 204 239 246 242 238 235 232 232 232 232 232 231 227 222 217 216 217
156 157 157 158 158 159 159 160 160 162 164 165 164 163 162 161 161 162 162 161 162 165 169 171 168 165 162 160 158 154 151 147 143 141 139 138 137 137 135 132 131 132 135 135 135 135 137 142 146 145 142 140 146 165 205 214 221 224 225 226 226 226 225 223 217 210 206 208 213
154 155 155 156 156 156 157 158 159 159 160 159 157 156 156 157 158 159 159 158 157 158 159 158 155 151 149 147 145 144 142 142 142 141 140 139 137 135 133 130 131 134 137 138 136 137 141 152 164 168 150 129 110 97 96 135 195 212 215 214 212 211 209 207 205 202 202 207 212
152 153 153 153 154 155 155 155 155 155 155 154 153 154 156 157 158 158 156 154 151 150 148 146 144 142 141 140 140 140 140 140 140 140 140 139 137 134 132 131 132 136 137 137 136 139 146 161 173 180 170 133 102 87 80 101 170 193 195 191 192 190 190 194 200 203 205 210 215
151 151 152 153 153 153 153 152 151 151 151 151 152 153 155 155 155 153 151 148 145 143 141 139 138 138 138 138 138 139 139 138 139 139 139 138 136 135 135 136 138 139 139 138 139 144 156 168 174 181 185 171 114 81 64 80 146 173 177 176 175 175 177 183 191 197 202 208 213
151 152 152 153 152 151 150 149 149 148 148 149 150 151 151 151 150 148 146 144 142 141 140 139 139 138 138 138 138 138 137 137 138 138 137 137 138 138 139 141 143 145 144 143 144 152 163 172 175 182 193 205 178 83 51 60 138 164 166 165 164 164 165 169 175 179 182 185 189
153 152 152 151 150 149 147 146 146 146 146 147 147 147 146 146 145 144 142 141 141 140 139 139 139 138 137 136 136 135 133 133 134 135 135 136 138 139 140 142 145 147 148 149 151 156 165 171 173 181 194 205 203 156 59 81 143 154 154 152 151 152 153 155 157 159 161 160 159
153 152 150 149 148 147 145 145 145 145 145 145 145 143 142 141 141 140 140 139 138 137 135 135 135 135 133 132 131 131 131 131 132 133 134 135 136 138 140 143 146 149 151 153 154 157 161 166 174 186 196 201 196 156 106 121 137 142 141 138 139 141 144 145 146 149 151 151 151
151 151 149 147 145 144 144 143 143 143 142 142 141 140 139 138 137 137 137 138 136 134 134 133 133 133 133 132 131 131 132 133 132 132 134 136 137 138 141 144 148 151 153 155 155 154 156 164 179 189 193 190 172 138 119 126 131 131 129 128 130 134 137 137 138 140 143 144 147
150 149 147 145 143 142 142 141 141 140 139 138 138 138 137 136 134 135 136 136 135 134 133 133 133 134 135 135 134 134 135 135 135 135 135 136 138 139 142 145 150 153 156 156 154 151 153 166 182 187 185 175 158 136 126 126 126 124 122 122 125 128 129 129 129 131 134 137 141
148 148 146 144 142 140 139 139 138 138 137 137 136 136 135 135 135 135 136 136 136 135 134 134 134 135 137 137 136 135 135 137 137 137 137 138 141 143 144 145 150 154 156 156 153 150 153 166 177 178 172 165 152 138 129 126 123 120 117 116 116 118 121 122 123 124 126 130 133
147 146 145 143 141 139 138 137 137 137 137 136 135 135 136 136 136 137 137 137 137 136 136 135 135 136 137 137 136 134 134 136 137 138 139 141 145 146 145 144 146 149 151 152 150 150 152 158 162 162 159 157 148 138 130 124 119 115 113 111 111 111 114 117 119 119 120 120 123
145 145 143 141 140 139 138 136 136 137 137 136 136 136 137 137 137 137 137 137 136 136 135 134 134 135 136 136 135 133 133 133 135 137 139 142 145 145 142 139 136 136 137 140 144 145 145 145 144 145 147 146 141 134 128 123 118 113 111 112 112 112 113 114 115 115 115 113 109